Showing default

ANSER-LS, 62644

Orbit data source: Space-Track

ANSER-LS, 62644 is a payload satellite owned by INTA (ES) in SSO that was launched on Tue, 14 Jan 2025 UTC via an FALCON 9 launch vehicle from the Air Force Western Test Range (AFWTR). Payload-class satellites include a variety of spacecraft equipped with specific instruments for various scientific and technological missions. These include communications satellites like Starlink; space stations such as the ISS; scientific satellites like the Hubble; Earth observation satellites from companies like Planet Labs, Umbra, and HawkEye 360; GPS; miniature CubeSats for education and research; and military/defense satellites.

Loading next visibility...
Identifier
62644, 2025-009AM
Orbit
SSO
Country
Flag of ESES / SPN
Related business
Manufacturer
INTA
Mission
Operational Civil Imaging
Bus & Motor
CUBESAT 3U, Unknown motor
Mass
4 kg wet, 4 kg dry
Launch date (UTC)
2025-01-14 (2 years ago)
Launch vehicle
FALCON 9
Launch site
Air Force Western Test Range (AFWTR)
Object type
Payload
Rocket body
Debris
Shape & HBR
Box + 2 Pan, 0.2 m
Radar Cross Section
0.035 m², Medium (>0.1 m² and < 1m²)

Expand to show TLE details & history
Last TLE update: 1 day ago

TLE from 1 day ago
0 ANSER-LS
1 62644U 25009AM  26255.20611699  .00039568  00000-0  54062-3 0  9993
2 62644  97.3956 344.4417 0000622  76.1201 284.0123 15.57361568 92702
Epoch: 2026-09-12T04:56Z
TLE epoch observation values (Epoch: 2026-09-12T04:56:48.507Z)
Latitude
-0.0001°
Longitude
-80.97885°
Altitude
398.336 km
Speed
7.671 km/s
True Right ascension
22h 57m 46s
True Declination
0° 00' 00"
Sunlit
Object was in full shadow at epoch
Visualization orbit readout
Latitude
Unknown
Longitude
Unknown
Altitude
Unknown
Speed
Unknown
Apparent Right ascension
Unknown
Apparent Declination
Unknown
Sunlit
N/A
Visualization observer readout
Local Sidereal Time
03:32:46
Azimuth
Unknown
Elevation
Unknown
Doppler factor
Unknown
Orbital elements
Apogee altitude
392.633 km
Perigee altitude
391.791 km
Semi-major axis
6,770.349 km
Eccentricity
0.00006
Inclination
97.3956°
RAAN
344.4417°
Arg. of periapsis
76.1201°
True anomaly
284.00538°
Mean anomaly
284.0123°
Eccentric anomaly
284.00884°
Mean motion
3.89607 °/min
Orbital period
92.4 mins
BSTAR
0.00054062
Loading maneuver chart data...
Computing Atmospheric mass density...
Loading historical data...
Loading historical data...
Loading historical data...
Loading historical data...
Loading historical data...
Loading historical data...
Loading historical data...

Documentation

Showing up to 5 results
|